[[{"header":{"parameterUnit":"m.s-1","parameterCategory":1,"la1":30.2991,"la2":30.254,"lo1":-89.0895,"lo2":-89.0444,"dy":0.0017,"dx":0.0017,"nx":28,"ny":28,"refTime":"2023-10-13T03:00:00:Z","depth":0,"parameterNumber":2,"parameterNumberName":"U-component_of_WINDS"},"data":[0,0,0,0,0,0,0,0,0,0,0,0,0,0,0,0,0,0,0,0,0,0,0,0,0,0,0,0,0,0,0,0,0,0,0,0,0,0,0,0,0,0,0,0,0,0,0,0,0,0,0,0,0,0,0,0,0,0,0.5058,0.5059,0,0.5094,0.5095,0.5095,0.5117,0.5117,0.5117,0.5117,0.5152,0.5153,0.5154,0,0,0,0,0,0,0,0,0,0,0,0,0,0.5005,0.5006,0.5058,0.5059,0.5059,0.5094,0.5095,0.5095,0.5117,0.5117,0.5117,0.5117,0.5152,0.5153,0.5154,0,0,0,0,0,0,0,0,0,0,0,0,0,0.5033,0.5006,0.5058,0.5074,0.5076,0.5094,0.5095,0.5095,0.5117,0.5117,0.5117,0.5117,0.5151,0.5153,0.5154,0.5159,0,0,0.5158,0.5158,0,0,0,0,0,0,0,0,0.5032,0.5035,0.5071,0.5073,0.5075,0.5101,0.5089,0.5117,0.5116,0.5101,0.5117,0.5117,0.5135,0.5138,0.5144,0.516,0.5162,0.5158,0.5159,0.5159,0.516,0,0,0,0,0,0,0,0.503,0.5034,0.5072,0.5072,0.5074,0.5079,0.5083,0.5094,0.5117,0.5102,0.5104,0.5108,0.5136,0.5143,0.5145,0.5162,0.5158,0.5159,0.516,0.516,0.5184,0.5184,0,0,0,0,0,0,0.5026,0.5032,0.5071,0.5073,0.5053,0.5079,0.5084,0.5093,0.5117,0.512,0.5108,0.5109,0.514,0.5143,0.5146,0.5153,0.5159,0.516,0.5161,0.5184,0.5184,0.5184,0,0,0,0,0,0,0.5024,0.5029,0.507,0.5053,0.5059,0.508,0.5089,0.5093,0.51,0.5121,0.5125,0.5111,0.5141,0.5144,0.5155,0.5155,0.5161,0.5162,0.5184,0.5184,0.5184,0.5167,0,0,0,0,0,0,0.5023,0.5028,0.5031,0.5053,0.506,0.5079,0.5089,0.5094,0.5102,0.5104,0.5125,0.5128,0.5141,0.5153,0.5157,0.5156,0.5163,0.5184,0.5184,0.5184,0.5167,0.5166,0.5165,0,0,0,0,0,0.5021,0.5025,0.5031,0.5036,0.5063,0.5079,0.5083,0.5098,0.5102,0.5105,0.5118,0.5127,0.5154,0.5154,0.5158,0.5158,0.5184,0.5184,0.5184,0.5168,0.5166,0.5165,0,0,0,0,0,0,0.5001,0.5028,0.5035,0.5046,0.506,0.5083,0.5086,0.5096,0.5108,0.5109,0.5127,0.5132,0.5141,0.5151,0.515,0.5164,0.517,0.5171,0.5157,0.5155,0.5154,0.5151,0.5164,0,0,0,0,0,0.4998,0.5009,0.5032,0.5039,0.5046,0.5065,0.5072,0.5083,0.5097,0.5103,0.5117,0.5131,0.5142,0.5149,0.5161,0.5169,0.5173,0.5171,0.5169,0.5168,0.5168,0.5172,0.5171,0.5183,0.5183,0.5183,0,0,0.4992,0.5008,0.5014,0.5036,0.5048,0.5058,0.5069,0.508,0.5087,0.5105,0.5116,0.5127,0.5143,0.5152,0.5157,0.5161,0.5166,0.5168,0.5167,0.5167,0.5172,0.5171,0.517,0.5182,0.5183,0.5183,0,0,0.4986,0.4999,0.5007,0.5019,0.5037,0.5049,0.5051,0.5072,0.508,0.5092,0.5104,0.5113,0.5133,0.5144,0.5152,0.5149,0.5158,0.5152,0.5145,0.5149,0.5148,0.5147,0.5145,0.5145,0.5152,0.5152,0.5152,0,0.4976,0.4993,0.5009,0.5019,0.5028,0.5045,0.5052,0.5062,0.5083,0.5088,0.5092,0.5117,0.5129,0.5141,0.514,0.5146,0.5148,0.515,0.5147,0.5146,0.5146,0.5144,0.5144,0.5151,0.5151,0.5152,0.5152,0,0.4979,0.499,0.4994,0.5014,0.5023,0.5032,0.5049,0.5056,0.5066,0.5077,0.5089,0.5104,0.5118,0.5122,0.5131,0.5135,0.5136,0.5143,0.515,0.5143,0.5142,0.5142,0.515,0.515,0.5151,0.5151,0,0,0.4962,0.4991,0.4992,0.5001,0.5022,0.503,0.5039,0.5054,0.5059,0.5073,0.508,0.5096,0.5102,0.5111,0.5122,0.5125,0.5121,0.5132,0.5132,0.5129,0.5125,0.512,0.5119,0.5128,0.5128,0.5128,0.5124,0,0.4958,0.4976,0.4991,0.5002,0.5012,0.5028,0.5035,0.5048,0.5059,0.5069,0.5081,0.5091,0.5099,0.5105,0.5109,0.5121,0.5121,0.5122,0.5134,0.5134,0.5129,0.5119,0.5113,0.5108,0.5124,0.5124,0.5123,0,0.4957,0.497,0.4983,0.5002,0.5007,0.5013,0.5028,0.5037,0.5052,0.5059,0.5069,0.508,0.5089,0.5095,0.5108,0.5108,0.5113,0.512,0.512,0.5122,0.5128,0.5119,0.5108,0.5107,0.5123,0.5123,0.5123,0,0.4943,0.4963,0.4973,0.4981,0.5004,0.5008,0.5017,0.5033,0.504,0.5053,0.5058,0.5071,0.5078,0.5087,0.5101,0.5104,0.5111,0.5119,0.5117,0.5117,0.5118,0.5118,0.5107,0.5122,0.5122,0.5122,0.5122,0,0.4937,0.4944,0.4967,0.4973,0.4981,0.4998,0.5005,0.5016,0.5029,0.5037,0.5051,0.5058,0.5076,0.5085,0.5096,0.5104,0.5107,0.5113,0.5115,0.5111,0.511,0.5115,0.5115,0.5122,0.5122,0.5122,0.5122,0,0.4922,0.4938,0.495,0.4971,0.4976,0.4981,0.4998,0.5004,0.5016,0.5026,0.5029,0.5047,0.5058,0.5073,0.5088,0.5096,0.5102,0.5107,0.5097,0.5099,0.5096,0.5096,0.5087,0.5087,0.5103,0.5103,0.5103,0,0.4918,0.4923,0.4945,0.4951,0.4961,0.4971,0.4979,0.4995,0.5003,0.502,0.5023,0.5036,0.5046,0.5063,0.5077,0.5089,0.5093,0.509,0.5095,0.5091,0.5093,0.5092,0.5092,0.5088,0.5088,0.5088,0.5087,0,0.4908,0.4915,0.4926,0.494,0.4949,0.4961,0.4973,0.4977,0.4996,0.5004,0.5015,0.5024,0.504,0.5051,0.5065,0.5074,0.5083,0.5086,0.5086,0.5081,0.5075,0.5078,0.5093,0.5086,0.5086,0.5086,0.5086,0.5086,0.4897,0.4903,0.4919,0.4931,0.4941,0.4952,0.4959,0.4971,0.4981,0.4996,0.5005,0.5016,0.503,0.5049,0.5057,0.5066,0.507,0.507,0.507,0.507,0.5068,0.5074,0.5068,0.5068,0.5069,0.5069,0.5069,0,0.4888,0.4898,0.4909,0.4926,0.4935,0.4944,0.4957,0.4964,0.4974,0.4986,0.4996,0.5009,0.502,0.5035,0.5047,0.5051,0.5055,0.5053,0.5053,0.5055,0.5064,0.5063,0.5049,0.5049,0.5049,0.5049,0.5049,0.5049,0.4883,0.4893,0.4902,0.4917,0.4927,0.4939,0.4946,0.4955,0.4965,0.4979,0.4989,0.4998,0.5011,0.5024,0.5035,0.5039,0.5042,0.5038,0.5044,0.5052,0.5054,0.5056,0.5054,0.5039,0.5039,0.5033,0.5033,0.5033]},{"header":{"parameterUnit":"m.s-1","parameterCategory":1,"la1":30.2991,"la2":30.254,"lo1":-89.0895,"lo2":-89.0444,"dy":0.0017,"dx":0.0017,"nx":28,"ny":28,"refTime":"2023-10-13T03:00:00:Z","depth":0,"parameterNumber":3,"parameterNumberName":"V-component_of_WINDS"},"data":[0,0,0,0,0,0,0,0,0,0,0,0,0,0,0,0,0,0,0,0,0,0,0,0,0,0,0,0,0,0,0,0,0,0,0,0,0,0,0,0,0,0,0,0,0,0,0,0,0,0,0,0,0,0,0,0,0,0,1.3849,1.3848,0,1.3783,1.3783,1.3782,1.3744,1.3744,1.3744,1.3744,1.3673,1.3671,1.367,0,0,0,0,0,0,0,0,0,0,0,0,0,1.3937,1.3935,1.3849,1.3848,1.3847,1.3784,1.3783,1.3782,1.3744,1.3744,1.3744,1.3744,1.3674,1.3672,1.3669,0,0,0,0,0,0,0,0,0,0,0,0,0,1.3888,1.3935,1.3849,1.3821,1.3818,1.3784,1.3783,1.3781,1.3744,1.3744,1.3744,1.3744,1.3674,1.3672,1.3669,1.3657,0,0,1.3661,1.366,0,0,0,0,0,0,0,0,1.389,1.3884,1.3826,1.3823,1.3819,1.3772,1.3788,1.3739,1.3744,1.3772,1.3744,1.3744,1.3706,1.3701,1.3689,1.3653,1.365,1.3661,1.3659,1.3658,1.3657,0,0,0,0,0,0,0,1.3894,1.3887,1.3823,1.3825,1.3821,1.381,1.3803,1.3778,1.3741,1.377,1.3767,1.376,1.3704,1.3691,1.3687,1.3649,1.3661,1.3658,1.3657,1.3656,1.3598,1.3598,0,0,0,0,0,0,1.3902,1.389,1.3825,1.3821,1.3855,1.3809,1.3801,1.3787,1.3741,1.3734,1.376,1.3758,1.3696,1.369,1.3684,1.3665,1.3658,1.3656,1.3654,1.3598,1.3598,1.3599,0,0,0,0,0,0,1.3904,1.3897,1.3827,1.3855,1.3845,1.3807,1.3793,1.3786,1.3773,1.3734,1.3726,1.3754,1.3695,1.3688,1.3664,1.3662,1.3654,1.3652,1.3598,1.3598,1.3598,1.3629,0,0,0,0,0,0,1.3907,1.3898,1.3894,1.3855,1.3844,1.381,1.3793,1.3785,1.3769,1.3766,1.3726,1.3719,1.3695,1.3668,1.3661,1.3659,1.365,1.3598,1.3598,1.3598,1.3627,1.363,1.3632,0,0,0,0,0,1.391,1.3904,1.3894,1.3886,1.3838,1.381,1.3803,1.3776,1.3769,1.3764,1.3739,1.3721,1.3664,1.3666,1.3658,1.3654,1.3598,1.3598,1.3598,1.3627,1.3629,1.3631,0,0,0,0,0,0,1.3943,1.3899,1.3887,1.3868,1.3843,1.3804,1.3796,1.378,1.3755,1.3753,1.3719,1.3711,1.3689,1.3669,1.3672,1.3639,1.3629,1.3627,1.3653,1.3655,1.3657,1.3662,1.3648,0,0,0,0,0,1.3949,1.393,1.3892,1.3879,1.3868,1.3834,1.3821,1.3802,1.3774,1.3763,1.3736,1.3708,1.3684,1.3668,1.3644,1.3624,1.3614,1.3618,1.362,1.3622,1.3621,1.3608,1.3608,1.3599,1.3599,1.3599,0,0,1.3959,1.3932,1.3923,1.3885,1.3864,1.3844,1.3826,1.3806,1.3791,1.3759,1.3735,1.3714,1.3681,1.3659,1.3648,1.3641,1.3621,1.3622,1.3624,1.3622,1.3608,1.3609,1.361,1.3599,1.3599,1.3599,0,0,1.3968,1.3946,1.3933,1.3912,1.388,1.3857,1.3854,1.3817,1.3802,1.3777,1.3753,1.3734,1.3693,1.367,1.3653,1.3652,1.3634,1.3645,1.3655,1.3643,1.3643,1.3644,1.3642,1.3642,1.3644,1.3644,1.3644,0,1.3984,1.3955,1.3928,1.391,1.3893,1.3865,1.385,1.3831,1.3792,1.378,1.3774,1.3722,1.3697,1.3669,1.3669,1.3656,1.365,1.3649,1.3646,1.3646,1.3646,1.3644,1.3644,1.3646,1.3645,1.3645,1.3645,0,1.3977,1.3957,1.395,1.3914,1.3896,1.388,1.3849,1.3834,1.3817,1.3794,1.3769,1.3739,1.3707,1.3699,1.3681,1.3667,1.3664,1.3653,1.3642,1.3649,1.3646,1.3646,1.3648,1.3647,1.3647,1.3646,0,0,1.4004,1.3953,1.3951,1.3934,1.3896,1.3879,1.3861,1.3831,1.3819,1.3793,1.3775,1.3741,1.373,1.371,1.369,1.3679,1.3679,1.3668,1.3666,1.367,1.366,1.3669,1.3668,1.3667,1.3666,1.3666,1.3662,0,1.4007,1.3974,1.3948,1.3924,1.3905,1.3878,1.3861,1.3835,1.3814,1.3793,1.3768,1.3745,1.3732,1.372,1.3708,1.3681,1.3676,1.3681,1.3648,1.3648,1.3657,1.3667,1.3677,1.3674,1.3661,1.3661,1.3661,0,1.4006,1.3981,1.3956,1.3919,1.391,1.3896,1.3866,1.3847,1.3816,1.3801,1.378,1.3758,1.3736,1.3727,1.3695,1.3699,1.3684,1.3669,1.3668,1.3663,1.3655,1.3662,1.3673,1.3673,1.3659,1.366,1.366,0,1.4027,1.3988,1.3968,1.3954,1.3911,1.3901,1.3883,1.3852,1.3835,1.3809,1.3797,1.3768,1.3751,1.3728,1.3699,1.3696,1.3669,1.3658,1.3654,1.3655,1.365,1.365,1.3658,1.3641,1.3641,1.3641,1.3641,0,1.4032,1.4018,1.3977,1.3964,1.3946,1.3916,1.3898,1.3877,1.385,1.3831,1.3805,1.3788,1.3751,1.3728,1.3705,1.3681,1.3674,1.366,1.3653,1.3662,1.3663,1.3651,1.365,1.3641,1.3641,1.3641,1.3641,0,1.4053,1.4026,1.4001,1.3962,1.3952,1.3941,1.3907,1.3892,1.3869,1.3846,1.3839,1.3802,1.3774,1.3743,1.3705,1.3689,1.3666,1.3657,1.3677,1.3673,1.3671,1.3671,1.367,1.3668,1.3654,1.3654,1.3654,0,1.4058,1.4046,1.4006,1.3993,1.3975,1.3953,1.3936,1.3906,1.3889,1.3853,1.3842,1.3813,1.3788,1.3744,1.3713,1.3684,1.3674,1.3675,1.3669,1.3677,1.3672,1.3673,1.3671,1.3677,1.3677,1.3677,1.3678,0,1.4069,1.4056,1.4033,1.4006,1.3987,1.3963,1.3938,1.3928,1.3892,1.3874,1.3846,1.3827,1.3788,1.3758,1.3725,1.3703,1.3684,1.368,1.3677,1.3685,1.3696,1.3689,1.3681,1.368,1.368,1.3679,1.3679,1.3679,1.4081,1.4069,1.4039,1.4015,1.3993,1.397,1.3955,1.393,1.3907,1.3874,1.3856,1.3828,1.3796,1.3749,1.3729,1.3705,1.3699,1.3695,1.3694,1.3693,1.3695,1.3701,1.3699,1.3698,1.3698,1.3698,1.3698,0,1.409,1.407,1.4047,1.4014,1.3994,1.3979,1.3951,1.3935,1.3911,1.3883,1.3859,1.3826,1.3798,1.3764,1.3733,1.372,1.371,1.3713,1.3713,1.3708,1.3703,1.3708,1.3721,1.3721,1.3721,1.3721,1.3721,1.3721,1.4093,1.4071,1.4054,1.4021,1.3999,1.3973,1.3958,1.3936,1.3914,1.3879,1.3855,1.3834,1.3804,1.377,1.3742,1.3733,1.3722,1.3727,1.3715,1.3711,1.3709,1.3707,1.3712,1.3725,1.3725,1.3722,1.3722,1.3722]}]]